Regional Weather Roundup
Issued by NWS

Home | Current Version | Previous Version | Text Only | Print | Product List | Glossary On
Versions: 1 2 3 4 5 6 7 8 9 10 11 12 13 14 15 16 17 18 19 20 21 22 23 24 25 26 27 28 29 30 31 32 33 34 35 36 37 38 39 40 41 42 43 44 45 46 47 48 49 50
000
ASCA44 KEWX 191020
RWRMX

LATIN AMERICA AND CARIBBEAN REGIONAL WEATHER ROUNDUP
NATIONAL WEATHER SERVICE AUSTIN/SAN ANTONIO TX
500 AM CDT SUN APR 19 2015

NOTE: "FAIR" INDICATED FEW OR NO CLOUDS BELOW 12,000 FEET WITH NO
SIGNIFICANT WEATHER AND/OR OBSTRUCTIONS TO VISIBILITY.

BAJA CALIFORNIA

CITY           SKY/WX    TMP DP  RH WIND       PRES   REMARKS
TIJUANA        CLEAR     55  52  88 CALM      29.98F

NORTHWESTERN MEXICO

CITY           SKY/WX    TMP DP  RH WIND       PRES   REMARKS

NORTHEASTERN MEXICO

CITY           SKY/WX    TMP DP  RH WIND       PRES   REMARKS
MONTERREY      CLEAR     64  63  94 CALM      29.78S
REYNOSA        FOG       68  66  94 SE3       29.76F VSB 1
TORREON        CLEAR     63  45  51 CALM      29.93
CD. VICTORIA   PTCLDY    70  70 100 CALM      29.78F

WESTERN MEXICO

CITY           SKY/WX    TMP DP  RH WIND       PRES   REMARKS
AGUASCALIENTES CLEAR     50  39  66 S6        30.15S WCI  48
GUADALAJARA    CLEAR     57  45  62 CALM      30.09F
MAZATLAN       PTCLDY    61  57  88 NE7       29.84S FOG
P. VALLARTA    CLEAR     72  70  94 NE2       29.84F

CENTRAL MEXICO

CITY           SKY/WX    TMP DP  RH WIND       PRES   REMARKS
MEXICO CITY    CLEAR     61  39  44 NE2       30.21S
MORELIA        CLEAR     54  43  66 CALM      30.14S
QUERETARO      PTCLDY    66  41  39 NW6       30.18F
S. LUIS POTOSI CLEAR     54  46  76 CALM      30.10F
TOLUCA         PTCLDY    45  36  70 CALM      30.29F

SOUTHERN MEXICO

CITY           SKY/WX    TMP DP  RH WIND       PRES   REMARKS
ACAPULCO       CLEAR     73  72  94 S2        29.83F

YUCATAN PENINSULA

CITY           SKY/WX    TMP DP  RH WIND       PRES   REMARKS
CAMPECHE       CLEAR     79  73  83 SE13      29.75
CANCUN         PTCLDY    79  73  83 SE12      29.87S
CD. DEL CARMEN CLOUDY    82  72  69 E18       29.75
COZUMEL        PTCLDY    75  72  88 SE7       29.87S
MERIDA         CLEAR     79  72  78 SE17      29.80F
TAPACHULA      MOCLDY    79  75  89 CALM      29.84F
VILLAHERMOSA   MOCLDY    81  77  89 CALM      29.79

CENTRAL AMERICA

CITY           SKY/WX    TMP DP  RH WIND       PRES   REMARKS
MANAGUA        MOSUNNY   79  72  78 E5        29.83S

CARIBBEAN

CITY           SKY/WX    TMP DP  RH WIND       PRES   REMARKS
ARUBA          PTCLDY    81  75  83 E17       29.86R
KINGSTON       PTCLDY    79  70  73 N5        29.92S
SAN JUAN       PTCLDY    75  73  94 CALM      30.01R
SANTO DOMINGO  PTCLDY    73  70  88 NE6       29.97S
ST. THOMAS     PTCLDY    77  72  83 E7        30.00

$$



USA.gov is the U.S. government's official web portal to all federal, state and local government web resources and services.